Weather in Troitskoye

Russia / Kursk Oblast     51°36′57″N   37°31′51″E
temp.,
°C
wind,
m/s
gust,
m/s
humid.,
%
clouds,
%
prec.,
mm/h
press.,
hPa
HPBL,
m
25 february, thu
thu2500:00−10ssw4896100 0.4 1034261
03:00−9ssw4995100 0.8 1032285
06:00−7sw4895100 0.1 1029268
09:00−3sw61095100 0.3 1027356
12:00+1wsw51198100 0.0 1025396
15:00+1wsw614100100 0.1 1022383
18:00+2w613100100 0.4 1021343
21:00+2w51299100 0.5 1022309
26 february, fri
fri2600:00+2w51199100 0.3 1021280
03:00+2wnw51299100 0.4 1022314
06:00+2w51099100 0.0 1020279
09:00+2w61199100 0.0 1020326
12:00+2w713100100 0.0 1018358
15:00+2w815100100 0.0 1016495
18:00+2w71498100 0.1 1014433
21:00+2w61396100 0.2 1014365
27 february, sat
sat2700:00+1w5129598 0.0 1013436
03:00+1w5109599 0.0 1012339
06:00+1w61296100 0.0 1010462
09:00+1wnw61197100 0.1 1010518
12:00+1w61199100 0.1 1009589
15:00+1w61199100 0.3 1010555
18:00+1wnw51097100 0.1 1010438
21:000wnw5997100 0.3 1011433
28 february, sun
sun2800:000nw479799 0.1 1011339
03:00−1nnw489399 0.3 1012441
06:00−2n499597 0.0 1014369
09:00−1n498899 0.1 1015775
12:00−1n698694 0.1 1017675
15:00−1n588596 0.1 1019756
18:00−1n4886100 0.1 1020708
21:00−2nnw4109499 0.4 1023524
1 march, mon
mon100:00−3n499477 0.1 1024469
03:00−4nnw389572 0.1 1025305
06:00−4n369589 0.1 1027316
09:00−4n359182 0.1 1029283
12:00−2nnw358158 0.1 1030749
15:00−2nnw457577 0.1 1031868
18:00−4wnw238729 0.0 103162
21:00−5wnw369216 0.0 1031167